Location: Aalsum
(53.3404°N, 6.0062°E)
Time: 09:26:09
(UTC+00:00)

IRIDIUM 106 - Pass Details

Date: 28 January 2023
Orbit: 776 x 779 km, 86.4° (Epoch: 19 March)

Event Time Altitude Azimuth Distance (km) Brightness Sun altitude
Rises 18:57:01 0° 355° (N) 3,281 7.7 -24.6°
Reaches altitude 10° 18:59:23 10° 355° (N) 2,348 6.9 -24.9°
Maximum altitude 19:04:39 90° 277° (W) 789 4.2 -25.7°
Enters shadow 19:07:27 29° 177° (S) 1,417 5.6 -26.1°
